Regional Weather Roundup
Issued by NWS Midland/Odessa, TX

Home | Current Version | Previous Version | Text Only | Print | Product List | Glossary On
Versions: 1 2 3 4 5 6 7 8 9 10 11 12 13 14 15 16 17 18 19 20 21 22 23 24 25 26 27 28 29 30 31 32 33 34 35 36 37 38 39 40 41 42 43 44 45 46 47 48 49 50
000
ASUS44 KMAF 042310
RWRMAF
MIDLAND AREA WEATHER ROUNDUP
NATIONAL WEATHER SERVICE MIDLAND TX
600 PM CDT FRI SEP 04 2015

...IN SOUTHWEST TEXAS AND SOUTHEAST NEW MEXICO...

CITY           SKY/WX    TMP DP  RH WIND       PRES   REMARKS
ALPINE         MOSUNNY   90  45  21 E7        30.05S
ANDREWS        FAIR      92  53  26 SE12G17   29.95S
ARTESIA        CLOUDY    93  48  21 SE13      29.93S
BIG SPRING     CLOUDY    94  55  26 SE13      29.93S
CARLSBAD       MOSUNNY   96  46  18 SE13      29.90S
DRYDEN           N/A     97  60  29 SE8       29.86F
FORT STOCKTON  SUNNY     94  51  23 E13       29.92R
GUAD PASS      PTSUNNY   88  49  25 SW14      30.09S
HOBBS          MOSUNNY   91  48  22 SE7G17    29.97F
MARFA          CLOUDY    90  48  24 SE5       30.04S
MIDLAND AIRPK  SUNNY     95  51  22 SE7       29.93S
MIDLAND INTL   MOSUNNY   94  53  25 SE13G21   29.92F
ODESSA         MOSUNNY   94  51  23 SE6       29.94S
PECOS          SUNNY     98  49  19 NE13G22   29.86S
PRESIDIO       MOCLDY   100  49  18 SE6       29.84F
SEMINOLE       SUNNY     94  50  22 SE10      29.97R
SNYDER         MOSUNNY   93  56  28 S5        29.93S
WINK           SUNNY     97  51  21 SE13      29.89S
$$
...OTHER STATIONS IN TEXAS...

CITY           SKY/WX    TMP DP  RH WIND       PRES   REMARKS
ABILENE        SUNNY     95  61  32 SE9G18    29.89F
AMARILLO       MOSUNNY   90  53  28 S16       29.97S
AUSTIN         MOSUNNY   92  69  47 SE15      29.87R
BROWNSVILLE    MOSUNNY   90  76  63 SE18      29.86S HX 101
CORPUS CHRISTI PTSUNNY   87  76  69 S18       29.88S
DALLAS FTW     PTSUNNY   95  66  38 E8        29.88F
DEL RIO        SUNNY     99  63  30 SE16G24   29.80  HX 101
EL PASO        PTSUNNY   89  49  25 VRB3      29.96F
HOUSTON INT    PTSUNNY   86  72  62 S5        29.92R
LUBBOCK        MOSUNNY   92  55  28 SE12      29.96S
SAN ANGELO     MOSUNNY   97  57  26 SE9       29.87F
SAN ANTONIO    MOSUNNY   96  65  35 S13       29.87F
WACO           MOSUNNY   96  64  34 SE9       29.87F
WICHITA FALLS  NOT AVBL
$$
...OTHER LOCATIONS IN NEW MEXICO...

CITY           SKY/WX    TMP DP  RH WIND       PRES   REMARKS
ALAMAGORDO     CLOUDY    84  48  28 CALM      30.01S
ALBUQUERQUE    CLOUDY    69  58  67 S5        30.13F
CANNON AFB     PTSUNNY   87  52  30 S3        30.00S
CLOVIS         PTSUNNY   88  52  29 SE5       30.01S
HOLLOMAN AFB   CLOUDY    86  49  27 VRB6      29.99S
ROSWELL        CLOUDY    93  44  18 S13       29.93F
RUIDOSO        CLOUDY    66  54  63 SW5       30.22F
SANTA FE       LGT RAIN  62  56  80 W5        30.21R
TRUTH OR CONSE CLOUDY    75  58  55 E3        30.07S
TUCUMCARI      PTSUNNY   90  47  22 W10       29.96S
$$



USA.gov is the U.S. government's official web portal to all federal, state and local government web resources and services.